Theta_e
322 323 323 322 322 321 320 321 320 320 320 320 321 320 320 320 317 299 295 301 314 320 314 302 300 300 302 300 302 299 291 288 291 291 293 293 293 293 293 292 291 292 292 293 294
323 323 322 322 322 321 320 320 320 320 320 320 320 320 320 319 300 296 305 320 319 316 299 298 297 299 296 298 297 292 288 289 293 292 292 293 292 292 292 291 291 291 291 291 296
322 322 322 322 321 321 320 320 320 320 320 320 320 319 320 311 297 295 315 319 317 308 299 298 298 298 295 295 294 294 290 293 292 293 292 291 291 291 290 292 291 291 291 290 294
322 321 321 320 320 320 320 320 320 320 320 320 320 319 319 300 290 295 316 314 312 304 298 297 297 295 293 291 293 290 291 291 292 290 290 290 290 290 291 293 291 292 292 290 291
321 321 320 320 319 319 319 319 320 320 320 319 319 319 304 295 293 298 311 305 299 298 295 296 294 294 291 290 292 290 290 290 290 289 289 289 290 290 291 292 291 291 291 290 291
321 320 320 319 318 318 318 318 319 320 319 318 318 318 300 292 295 298 299 296 297 297 294 295 293 293 290 289 290 291 290 289 290 290 290 290 290 290 292 291 292 292 290 290 290
321 320 319 318 318 318 318 317 317 318 317 316 317 306 296 293 295 298 298 295 296 296 296 296 296 295 293 289 291 291 291 290 289 291 290 289 290 289 291 292 291 291 290 290 290
320 319 318 318 318 317 316 316 316 316 316 315 318 300 293 297 296 298 298 297 298 297 296 296 297 294 292 291 291 289 289 286 288 290 291 291 287 292 291 289 288 289 289 290 290
319 318 318 317 317 316 316 316 316 316 315 315 299 296 291 304 296 296 297 296 296 296 298 301 296 292 293 289 286 285 283 285 287 289 289 290 287 291 292 287 287 287 288 288 290
318 317 317 316 316 317 316 313 315 310 305 301 298 293 294 292 295 296 297 297 296 297 297 297 292 289 286 286 281 282 283 283 284 286 287 286 286 289 291 287 286 285 286 288 289
317 316 316 316 316 314 306 297 295 294 295 293 290 291 292 296 296 296 296 296 297 295 290 292 289 285 284 284 284 284 283 283 284 286 286 285 284 287 290 287 286 286 286 289 288
316 316 316 315 315 311 298 296 293 294 291 292 292 292 293 295 292 294 297 293 293 289 289 288 284 284 286 286 285 285 283 283 284 285 285 284 284 286 288 286 286 285 285 287 288
315 315 316 314 313 300 294 294 296 296 291 292 292 292 292 294 290 291 294 291 289 287 285 284 283 285 285 284 284 283 282 281 282 284 284 282 284 286 286 286 286 284 285 286 288
315 315 315 311 302 293 292 295 297 296 285 286 289 292 294 293 289 294 294 292 289 286 285 283 283 284 284 284 284 282 284 284 283 281 278 282 279 283 285 284 285 283 283 284 286
315 315 314 307 295 292 293 296 297 295 275 288 290 296 294 290 289 291 294 292 286 286 285 283 282 283 284 284 284 283 285 283 282 277 277 280 278 283 284 284 284 284 283 284 285
314 314 310 302 298 295 298 297 295 284 274 285 289 287 286 289 289 290 291 293 290 286 284 282 283 283 283 284 284 284 283 281 279 279 273 272 278 282 283 284 282 283 283 283 284
313 311 304 300 294 297 300 293 283 277 285 283 283 285 283 283 285 286 285 282 282 280 279 284 282 282 284 284 285 283 280 274 273 272 275 275 276 283 284 282 283 282 283 285 284
310 307 302 299 297 299 294 287 277 280 281 285 284 283 282 283 283 283 283 281 282 280 275 277 278 282 282 282 280 281 278 274 269 272 274 277 276 283 282 281 282 284 285 286 286
309 301 298 300 298 296 290 279 279 280 284 282 282 280 279 283 282 281 279 277 279 281 279 276 278 280 282 282 282 281 279 279 272 273 270 277 279 282 280 281 283 284 285 285 285
299 296 298 300 296 291 285 283 281 284 283 283 279 280 277 278 280 279 279 280 282 283 280 280 276 280 280 282 282 280 281 277 272 269 269 274 274 279 276 279 282 283 283 284 285
294 292 297 298 294 287 280 278 285 283 284 282 279 279 280 279 279 278 279 281 284 282 282 277 277 277 279 278 275 277 273 275 276 274 271 269 275 279 279 280 281 282 283 283 283
289 286 297 294 287 280 281 284 288 283 284 282 282 281 280 280 278 278 279 282 283 283 280 279 275 273 277 273 271 274 275 274 275 270 272 274 275 282 276 275 279 280 283 283 283
291 291 296 293 281 281 283 284 284 284 283 283 282 283 282 280 278 279 280 285 284 284 279 279 276 271 275 274 276 274 273 272 275 275 270 271 276 284 284 282 278 279 282 283 283
289 285 289 289 285 282 282 283 283 285 283 283 282 282 281 279 281 279 280 284 285 284 291 287 277 276 275 277 277 275 274 274 276 272 275 276 281 278 283 283 282 283 284 283 283
289 283 288 280 286 283 283 283 284 285 286 285 283 283 280 277 281 280 282 285 285 288 285 283 274 278 280 281 279 276 276 276 276 279 278 281 279 280 280 282 284 284 283 281 282
288 286 285 284 285 282 284 282 283 283 284 284 283 284 282 280 282 281 282 283 284 283 283 281 275 273 269 281 279 277 276 276 278 279 279 281 280 279 282 281 284 283 282 282 282
292 290 287 284 282 279 281 282 281 281 285 286 282 281 281 282 281 283 283 283 283 280 281 280 278 276 273 278 278 271 272 275 273 270 273 275 278 282 282 283 283 282 283 282 283
Wind_Speed
9 8 8 8 7 7 7 7 7 7 7 8 7 7 7 7 4 1 4 2 5 7 3 3 1 2 3 4 3 2 5 1 3 4 1 1 1 0 0 2 1 2 2 2 12
10 9 8 8 8 7 7 8 7 7 7 7 6 6 6 6 2 4 1 6 6 3 1 2 2 2 4 2 3 5 3 5 1 1 1 2 2 3 2 2 1 1 4 6 13
10 9 9 9 8 8 8 8 8 7 7 7 6 6 6 3 3 0 6 6 4 2 2 2 2 2 4 2 3 2 3 3 0 1 0 1 1 2 1 1 4 3 4 10 10
10 10 10 10 9 8 7 8 8 7 7 7 6 6 6 1 1 2 8 5 1 4 3 3 2 3 3 3 0 3 1 1 2 1 0 0 3 3 1 0 3 5 4 11 15
12 10 11 12 10 9 8 8 7 7 7 7 5 4 1 3 2 1 6 4 2 2 3 3 2 3 4 4 2 2 3 2 1 3 1 1 1 1 2 4 4 2 6 13 13
12 12 12 11 10 9 8 8 7 7 6 5 3 2 3 1 2 3 4 1 3 2 2 3 4 3 5 2 2 3 3 3 2 3 2 2 1 1 2 5 5 2 5 8 11
13 12 11 11 10 10 8 7 7 6 4 3 1 2 2 2 0 2 3 1 1 2 4 1 3 3 4 3 1 3 3 2 5 5 1 1 1 3 2 5 6 5 3 6 9
13 12 11 11 10 9 7 7 5 4 2 1 2 1 3 1 1 4 4 2 3 4 5 3 3 6 4 3 5 3 4 1 1 7 4 3 5 2 5 6 6 6 3 5 8
13 12 11 10 10 8 7 6 3 1 1 2 2 2 2 1 2 2 3 1 1 3 4 3 6 4 3 5 4 6 2 1 3 3 4 4 6 3 5 5 6 7 5 4 5
14 12 11 11 10 9 7 4 4 4 2 1 1 2 0 1 2 2 3 2 4 3 3 6 5 4 4 4 4 4 2 2 4 2 3 2 8 6 4 2 4 6 6 4 5
15 13 12 11 10 8 2 3 5 4 4 2 2 1 1 4 0 5 3 1 2 7 1 3 4 4 3 1 2 5 3 2 3 1 3 2 6 11 4 1 5 6 6 2 4
15 13 12 11 7 2 2 4 2 1 1 0 1 1 0 0 1 4 2 3 2 3 2 5 3 2 6 3 3 2 2 4 4 1 0 4 9 5 2 1 1 3 4 2 3
15 13 13 10 1 4 3 4 1 1 3 1 0 1 1 1 2 2 3 1 3 4 2 5 1 2 2 2 3 2 3 2 3 5 2 6 5 2 3 3 2 3 2 2 3
15 13 12 11 3 1 3 1 2 1 6 2 0 1 1 1 1 2 3 2 4 5 4 1 1 3 2 2 5 3 1 3 2 4 3 3 5 5 4 4 2 3 4 4 2
15 12 9 6 6 3 0 2 1 3 4 1 0 0 0 2 2 3 1 2 5 5 5 3 5 3 2 1 2 3 2 3 3 4 3 1 4 7 1 6 5 1 3 4 4
13 10 2 4 4 1 2 1 3 8 7 0 0 1 1 2 1 1 2 7 4 4 4 3 1 2 2 3 3 6 4 5 4 3 2 4 4 7 6 6 5 3 2 4 4
9 6 5 1 1 2 1 3 7 6 1 1 1 3 2 2 1 2 1 2 5 3 3 2 1 1 1 4 2 3 4 4 6 4 6 3 1 11 2 1 4 7 3 4 4
5 4 4 2 2 1 3 7 2 2 2 1 1 1 1 2 0 2 1 2 1 5 3 4 6 4 2 3 6 4 6 7 7 4 3 1 8 7 1 3 4 5 5 4 6
2 2 2 4 3 2 6 5 7 5 1 2 2 0 1 1 1 2 3 3 3 4 8 5 4 1 3 1 2 3 4 2 8 1 2 5 7 4 3 3 4 5 4 4 5
2 2 2 5 1 5 7 5 1 1 1 1 2 0 2 2 1 1 1 4 1 0 2 2 3 1 2 1 3 3 1 4 3 2 6 5 6 7 6 7 5 4 4 2 3
4 3 2 4 2 6 3 4 1 2 3 3 2 2 2 3 1 2 3 2 5 2 3 4 4 1 1 6 7 1 2 3 3 4 5 2 7 3 3 8 10 6 4 2 3
3 2 3 1 5 1 2 1 2 3 4 3 3 3 3 4 2 1 3 3 2 1 1 3 4 3 4 1 3 2 4 4 5 6 3 1 10 3 3 4 7 5 5 4 5
3 1 2 3 2 1 1 2 3 5 4 5 5 4 2 3 3 2 3 2 0 2 4 3 1 4 8 4 2 2 3 3 4 3 6 4 7 1 1 2 4 7 4 3 5
4 3 5 6 1 5 3 4 3 3 3 2 2 2 2 3 1 3 3 1 1 1 5 4 2 8 10 7 5 3 4 4 3 4 5 13 20 3 8 11 8 9 7 8 8
5 0 2 3 5 5 3 2 2 5 4 6 4 5 3 1 5 2 2 5 2 2 2 2 5 5 6 6 3 6 7 7 10 12 13 18 16 5 6 12 13 8 7 6 8
4 3 4 2 2 3 5 3 1 2 3 3 4 3 2 2 3 3 4 3 5 4 1 3 4 3 4 8 9 12 6 11 16 16 15 19 22 3 5 1 9 12 14 12 10
2 2 5 5 3 4 1 0 1 2 2 5 1 2 3 1 3 8 8 6 5 2 4 1 1 4 7 2 11 11 8 6 2 3 4 8 5 4 4 2 3 7 8 8 9
Wind_Direction
331 333 330 323 320 321 318 314 321 322 325 325 329 341 346 334 305 63 43 262 310 326 346 275 78 69 57 75 51 120 69 197 215 167 211 129 197 232 286 108 88 75 67 17 129
329 332 330 325 324 325 320 318 318 320 320 317 320 338 352 340 79 61 257 316 319 342 41 102 107 102 54 65 25 83 111 212 137 135 193 329 15 322 10 16 243 120 75 103 142
338 336 333 326 324 330 323 320 311 321 312 306 318 340 349 313 77 288 331 329 315 114 108 105 102 80 78 52 13 141 153 168 157 159 156 246 277 300 76 329 240 238 162 159 165
339 341 336 333 329 323 320 308 311 312 300 305 319 344 334 312 204 223 331 328 66 144 140 97 70 71 87 119 348 104 101 124 171 73 84 20 302 338 170 257 344 282 168 172 178
339 336 337 333 330 324 312 301 301 301 298 294 320 359 22 42 231 4 342 344 101 142 78 117 112 123 144 134 114 100 158 101 114 78 55 288 301 280 274 339 337 41 162 183 184
341 337 337 326 326 314 309 298 291 286 283 298 321 22 79 255 123 344 321 159 62 93 66 50 136 136 107 85 109 128 108 110 41 28 70 359 302 12 176 340 324 194 194 187 188
340 336 323 325 320 311 303 294 284 278 299 302 4 69 110 249 144 4 26 110 336 107 108 94 126 95 132 109 147 121 109 110 14 343 22 255 86 211 52 333 0 332 209 183 186
342 332 327 322 314 308 303 287 286 284 293 331 103 78 215 113 159 24 340 60 21 55 90 112 86 103 76 136 33 66 55 57 21 349 334 53 265 205 2 13 350 350 286 194 191
339 333 326 324 318 318 309 306 283 234 164 78 88 171 257 122 65 315 8 111 45 62 61 81 65 83 47 93 23 9 207 226 317 46 318 31 275 240 357 12 349 343 320 219 190
340 337 331 330 328 326 327 95 107 102 71 107 46 49 229 213 320 340 336 51 99 100 51 45 49 71 40 84 214 212 219 239 248 340 358 246 264 291 312 2 339 336 328 220 193
343 338 331 332 330 341 74 61 27 349 47 184 153 174 34 302 267 16 344 80 81 56 131 11 73 221 229 146 95 114 133 244 264 79 309 238 277 282 287 16 3 3 6 143 200
340 335 330 327 323 339 75 94 108 186 317 355 122 37 275 1 127 350 349 125 112 165 101 24 223 140 115 104 113 106 141 256 273 59 220 348 293 274 255 127 350 345 10 37 134
338 335 330 332 125 48 77 111 51 266 113 345 141 154 259 26 160 295 12 108 96 133 161 169 158 150 114 122 135 170 190 217 225 328 43 321 305 233 201 162 112 25 342 13 171
337 335 334 331 64 196 51 44 32 309 66 279 314 338 346 94 43 324 7 109 48 177 135 148 116 158 134 197 133 252 122 113 50 43 256 13 270 266 222 216 118 16 19 9 20
338 336 337 43 140 68 82 356 0 53 14 234 8 231 233 131 132 7 1 29 150 146 113 238 158 163 180 218 186 188 84 91 95 87 42 5 95 265 9 238 197 123 17 3 344
337 339 358 24 55 8 330 0 59 45 262 76 91 296 87 27 47 286 93 50 135 106 51 85 4 56 118 68 59 143 87 57 60 97 25 230 147 274 193 204 151 153 28 4 358
338 357 56 68 151 321 25 50 37 131 328 353 343 28 357 334 18 38 53 24 164 95 226 82 168 75 87 98 35 84 70 330 346 10 223 172 47 247 214 95 158 154 93 23 20
0 48 27 62 330 8 68 51 189 234 224 0 304 299 253 15 290 355 55 287 226 80 100 163 302 164 1 153 182 179 148 161 215 222 272 114 232 250 146 78 77 96 102 59 46
351 9 52 346 353 71 74 74 214 198 177 329 268 314 305 43 237 12 204 184 201 183 167 146 259 120 56 108 90 186 202 129 101 48 25 226 286 270 137 132 123 124 100 68 41
89 61 343 324 16 64 76 224 180 22 17 350 238 118 258 275 330 5 205 251 184 114 145 181 351 359 104 103 38 146 147 74 4 266 258 273 281 246 221 204 177 165 133 87 56
58 57 274 349 69 52 153 226 14 32 32 9 328 313 277 337 331 284 332 12 6 48 75 128 107 264 97 195 182 70 325 34 116 153 208 278 253 211 229 201 186 170 147 96 61
98 25 322 37 52 20 112 125 13 21 25 44 88 47 19 1 307 300 342 13 357 142 43 3 146 231 228 296 167 124 193 150 141 254 226 238 267 1 261 211 142 174 164 151 125
82 277 336 76 107 27 247 79 72 42 40 28 45 40 29 40 1 26 16 271 314 49 171 215 332 352 328 0 25 220 212 132 118 107 202 171 263 54 90 172 216 191 188 150 136
80 30 350 48 36 103 35 360 72 28 64 53 51 82 34 26 352 290 339 354 288 181 150 153 168 181 234 216 136 200 204 199 164 166 236 228 273 228 222 220 219 207 192 163 150
27 115 176 5 17 68 71 345 29 12 11 26 52 61 107 28 329 269 23 338 238 211 94 121 227 225 258 270 212 220 215 191 202 235 245 276 264 277 238 216 209 179 148 157 137
94 99 2 57 355 59 10 6 66 336 28 351 92 327 257 203 222 268 33 241 245 25 71 32 279 64 283 254 254 274 251 226 236 250 266 273 280 306 298 250 172 175 160 170 161
1 15 101 340 25 67 331 18 333 307 52 55 58 302 263 202 256 235 220 252 286 26 357 281 255 349 280 70 325 301 244 229 205 219 186 251 290 341 295 195 148 150 153 158 153